Precipitable_Water
1.95 2.08 2.09 1.89 1.85 1.86 1.88 1.88 1.94 1.97 2.06 2.08 2.02 1.97 1.93 2.00 2.03 2.01 2.04 2.04 2.08 2.02 2.04 2.09 2.09 2.15 2.15 2.16 2.12 2.05 2.03 2.08 2.08 2.08 2.13 2.14 2.20 2.19 2.25 2.29 2.28 2.28 2.25 2.19 2.16 2.15 2.12 2.06 2.00 1.98 1.90 1.86 1.76 1.76 1.70 1.71 1.67 1.66 1.65 1.69 1.68 1.65 1.64 1.63 1.52 1.41 1.38 1.24 1.14 1.12 1.07 1.13 1.16 1.18 1.20 1.21 1.23 1.24 1.26 1.27 1.27 1.28 1.31 1.31 1.32
1.89 1.97 2.03 1.87 1.86 1.84 1.84 1.90 1.90 1.90 1.96 1.98 2.10 2.03 1.93 1.98 2.01 2.01 2.02 2.06 2.06 2.08 2.12 2.15 2.20 2.27 2.32 2.17 2.02 1.99 2.06 2.04 2.05 2.10 2.16 2.13 2.20 2.12 2.20 2.29 2.32 2.30 2.28 2.25 2.27 2.22 2.12 2.10 2.04 2.01 1.88 1.92 1.84 1.77 1.78 1.74 1.72 1.68 1.65 1.66 1.67 1.67 1.68 1.66 1.62 1.49 1.44 1.30 1.16 1.12 1.10 1.12 1.14 1.17 1.18 1.15 1.17 1.18 1.21 1.24 1.25 1.26 1.26 1.29 1.33
1.82 1.84 1.85 1.84 1.84 1.85 1.86 1.88 1.87 1.89 1.99 2.03 2.08 2.03 1.96 1.97 2.00 2.00 2.04 2.10 2.11 2.13 2.19 2.15 2.11 2.12 2.17 2.17 2.07 2.09 1.90 1.94 2.01 2.07 2.18 2.26 2.28 2.24 2.24 2.30 2.35 2.32 2.30 2.30 2.29 2.24 2.21 2.12 2.10 2.03 1.93 1.91 1.87 1.86 1.81 1.81 1.77 1.73 1.67 1.62 1.67 1.66 1.64 1.66 1.69 1.63 1.50 1.36 1.20 1.13 1.13 1.17 1.17 1.22 1.22 1.20 1.17 1.15 1.17 1.19 1.21 1.23 1.24 1.23 1.27
1.72 1.79 1.79 1.75 1.74 1.77 1.82 1.83 1.89 1.96 2.05 2.01 2.06 2.08 2.03 2.14 2.21 2.10 2.07 2.07 2.13 2.14 2.18 2.15 2.06 2.00 2.05 1.98 1.91 1.99 2.15 2.17 2.06 2.12 2.16 2.19 2.28 2.33 2.30 2.30 2.34 2.35 2.29 2.28 2.30 2.31 2.26 2.21 2.11 2.06 1.98 1.92 1.84 1.86 1.86 1.85 1.83 1.77 1.72 1.64 1.63 1.68 1.65 1.64 1.68 1.67 1.56 1.39 1.25 1.17 1.14 1.21 1.21 1.21 1.22 1.20 1.19 1.18 1.19 1.18 1.17 1.19 1.21 1.22 1.21
1.80 1.76 1.74 1.65 1.79 1.84 1.84 1.79 1.89 1.99 1.96 1.94 2.00 2.04 1.99 2.15 2.22 2.11 2.02 2.02 2.06 2.04 2.14 2.16 2.10 2.11 1.95 1.88 1.87 1.86 1.82 2.01 2.07 2.14 2.20 2.26 2.28 2.34 2.31 2.31 2.36 2.34 2.32 2.27 2.27 2.32 2.28 2.22 2.15 2.08 2.02 1.95 1.87 1.80 1.83 1.86 1.87 1.81 1.79 1.74 1.66 1.64 1.66 1.66 1.67 1.65 1.62 1.48 1.30 1.20 1.16 1.21 1.25 1.24 1.20 1.18 1.16 1.15 1.15 1.17 1.17 1.15 1.16 1.17 1.17
1.80 1.77 1.75 1.78 1.83 1.79 1.69 1.78 1.85 1.87 1.89 1.83 1.92 1.97 1.93 2.01 2.15 2.08 1.98 1.94 1.96 2.00 2.00 2.02 2.03 1.93 1.75 1.65 1.73 1.81 1.83 1.90 2.01 2.09 2.20 2.26 2.30 2.32 2.34 2.33 2.34 2.31 2.29 2.29 2.25 2.25 2.24 2.20 2.16 2.07 2.07 2.04 1.97 1.85 1.83 1.85 1.87 1.86 1.83 1.80 1.75 1.64 1.62 1.66 1.69 1.65 1.64 1.58 1.37 1.24 1.19 1.20 1.24 1.26 1.23 1.20 1.16 1.14 1.13 1.12 1.13 1.15 1.16 1.15 1.14
1.84 1.78 1.75 1.79 1.74 1.71 1.71 1.81 1.81 1.83 1.85 1.90 1.89 1.95 2.02 2.05 2.05 1.94 1.97 1.97 1.89 1.88 1.98 1.99 1.95 1.78 1.58 1.55 1.61 1.78 1.85 1.97 2.05 2.14 2.18 2.22 2.25 2.28 2.36 2.37 2.32 2.32 2.30 2.24 2.28 2.26 2.20 2.23 2.13 2.10 2.10 2.11 2.07 1.96 1.92 1.85 1.83 1.86 1.85 1.83 1.79 1.73 1.64 1.60 1.64 1.70 1.70 1.67 1.49 1.31 1.24 1.22 1.22 1.24 1.27 1.23 1.21 1.18 1.15 1.13 1.12 1.12 1.15 1.15 1.14
1.94 1.87 1.80 1.84 1.78 1.69 1.76 1.75 1.80 1.87 1.90 1.92 1.89 1.91 2.01 2.04 2.00 1.95 1.92 1.96 1.91 1.91 2.01 1.98 1.88 1.66 1.51 1.49 1.52 1.65 1.79 1.94 2.01 2.10 2.16 2.22 2.28 2.30 2.34 2.33 2.32 2.31 2.30 2.29 2.27 2.27 2.28 2.28 2.15 2.12 2.13 2.12 2.08 2.00 1.97 1.89 1.85 1.88 1.91 1.89 1.81 1.78 1.72 1.64 1.64 1.66 1.69 1.71 1.65 1.41 1.29 1.24 1.22 1.21 1.22 1.25 1.21 1.20 1.17 1.17 1.16 1.13 1.12 1.12 1.12
1.99 1.95 1.88 1.75 1.79 1.79 1.87 1.86 1.88 1.93 1.96 1.96 1.95 1.99 2.01 1.95 1.94 1.97 1.99 1.95 1.92 1.92 2.00 1.98 1.80 1.60 1.48 1.45 1.44 1.54 1.77 1.92 1.98 2.02 2.12 2.13 2.23 2.29 2.30 2.36 2.35 2.30 2.28 2.27 2.34 2.29 2.32 2.31 2.26 2.16 2.12 2.13 2.07 2.03 1.99 1.98 1.94 1.94 1.95 1.93 1.88 1.80 1.79 1.74 1.67 1.64 1.63 1.68 1.74 1.61 1.37 1.27 1.21 1.19 1.17 1.18 1.20 1.18 1.17 1.17 1.17 1.16 1.13 1.11 1.10
2.07 2.05 2.00 1.90 1.89 1.89 1.91 1.93 1.98 2.03 2.01 1.99 1.96 2.05 2.04 1.99 1.91 1.99 2.00 1.97 1.91 1.94 1.96 1.95 1.72 1.53 1.45 1.45 1.41 1.54 1.77 2.01 2.02 2.05 2.04 2.06 2.14 2.23 2.26 2.30 2.30 2.27 2.24 2.24 2.24 2.22 2.24 2.24 2.17 2.17 2.15 2.12 2.08 2.05 2.01 2.00 1.99 1.95 1.95 1.93 1.92 1.90 1.85 1.83 1.75 1.67 1.63 1.61 1.70 1.71 1.55 1.33 1.25 1.20 1.18 1.16 1.16 1.17 1.16 1.16 1.15 1.13 1.13 1.14 1.12
2.06 1.99 1.96 1.94 1.96 2.02 2.02 2.02 2.05 2.06 2.01 1.99 2.00 2.02 2.03 2.06 2.00 1.99 2.02 2.01 1.98 1.99 1.96 1.89 1.65 1.50 1.43 1.39 1.32 1.52 1.76 1.85 1.96 2.06 1.99 2.03 2.09 2.16 2.19 2.18 2.20 2.22 2.19 2.18 2.18 2.19 2.23 2.25 2.17 2.12 2.11 2.11 2.06 2.03 2.01 2.02 2.01 1.99 1.94 1.93 1.92 1.92 1.92 1.87 1.82 1.77 1.74 1.71 1.66 1.68 1.65 1.48 1.32 1.27 1.22 1.18 1.16 1.15 1.15 1.15 1.16 1.14 1.13 1.13 1.12
2.00 2.03 2.10 2.09 2.09 2.10 2.08 2.07 2.08 2.09 2.05 1.96 1.95 1.99 2.00 2.01 2.04 1.99 1.95 1.99 2.04 1.98 1.94 1.82 1.60 1.46 1.39 1.34 1.34 1.50 1.66 1.80 1.89 1.92 1.93 1.96 1.99 2.03 2.07 2.15 2.16 2.18 2.17 2.19 2.22 2.20 2.22 2.21 2.19 2.14 2.09 2.06 2.05 2.03 2.02 2.01 2.01 2.00 1.98 1.94 1.93 1.91 1.91 1.91 1.88 1.85 1.80 1.76 1.73 1.72 1.70 1.63 1.48 1.36 1.30 1.23 1.18 1.16 1.15 1.13 1.14 1.16 1.16 1.14 1.13
2.18 2.15 2.11 2.15 2.16 2.14 2.10 2.09 2.10 2.08 2.05 1.99 2.03 2.03 2.07 2.06 2.03 2.04 1.94 1.89 1.85 1.93 1.87 1.79 1.48 1.30 1.27 1.17 1.35 1.40 1.57 1.74 1.75 1.79 1.87 1.90 1.93 1.94 1.96 2.03 2.08 2.09 2.12 2.17 2.20 2.20 2.18 2.17 2.18 2.16 2.11 2.09 2.08 2.07 2.05 2.03 2.02 2.00 2.00 1.99 1.94 1.90 1.87 1.87 1.86 1.84 1.84 1.79 1.73 1.72 1.71 1.69 1.64 1.53 1.41 1.32 1.24 1.19 1.15 1.13 1.12 1.12 1.13 1.14 1.14
2.29 2.29 2.26 2.29 2.23 2.16 2.10 2.08 2.11 2.09 2.08 2.07 2.06 2.08 2.08 2.03 2.00 1.92 2.00 1.87 1.79 1.86 1.78 1.58 1.31 1.18 1.06 0.97 1.20 1.36 1.59 1.65 1.64 1.64 1.82 1.91 1.87 1.88 1.88 1.89 1.96 2.01 2.05 2.08 2.11 2.15 2.20 2.20 2.17 2.12 2.12 2.12 2.12 2.11 2.08 2.06 2.03 2.00 2.01 2.00 1.97 1.92 1.90 1.87 1.86 1.85 1.86 1.87 1.79 1.75 1.65 1.64 1.67 1.65 1.60 1.43 1.33 1.24 1.18 1.13 1.12 1.11 1.11 1.12 1.13
2.35 2.38 2.38 2.36 2.30 2.23 2.17 2.13 2.09 2.05 2.02 2.01 2.03 2.01 2.02 1.98 1.94 1.85 1.79 1.88 1.85 1.87 1.77 1.65 1.30 1.28 1.24 1.05 0.99 1.02 1.51 1.45 1.45 1.55 1.61 1.72 1.83 1.84 1.81 1.80 1.86 1.92 1.96 2.00 2.04 2.05 2.06 2.05 2.05 2.07 2.07 2.05 2.05 2.08 2.08 2.07 2.06 2.02 2.01 2.01 2.00 1.99 1.96 1.93 1.90 1.89 1.87 1.87 1.84 1.79 1.78 1.72 1.66 1.66 1.65 1.56 1.43 1.32 1.23 1.18 1.17 1.17 1.16 1.15 1.14
2.44 2.39 2.38 2.35 2.34 2.28 2.23 2.21 2.07 2.04 2.01 1.98 2.00 2.00 1.99 1.95 1.90 1.86 1.83 1.70 1.66 1.61 1.62 1.55 1.42 1.28 1.12 1.07 1.02 1.04 0.86 0.99 1.09 1.45 1.55 1.53 1.62 1.78 1.76 1.75 1.76 1.83 1.88 1.88 1.96 2.02 2.11 2.08 2.00 2.01 2.02 2.05 2.04 2.03 2.05 2.08 2.09 2.08 2.04 2.04 2.02 2.00 2.00 1.99 1.97 1.95 1.94 1.91 1.86 1.79 1.75 1.73 1.70 1.69 1.69 1.66 1.62 1.56 1.48 1.40 1.30 1.25 1.24 1.22 1.20
2.34 2.34 2.41 2.38 2.41 2.30 2.28 2.17 2.09 2.10 2.11 2.05 2.02 2.00 1.95 1.92 1.90 1.86 1.77 1.66 1.52 1.49 1.46 1.48 1.45 1.52 1.35 1.19 1.10 1.01 0.96 1.05 1.07 1.25 1.39 1.42 1.43 1.51 1.64 1.66 1.66 1.71 1.73 1.79 1.88 1.91 1.94 2.02 2.05 2.05 2.04 2.03 2.00 2.00 2.03 2.06 2.09 2.10 2.11 2.10 2.06 2.02 1.99 1.99 2.01 2.00 1.98 1.97 1.94 1.87 1.82 1.76 1.70 1.69 1.68 1.66 1.62 1.63 1.61 1.52 1.45 1.39 1.33 1.30 1.29
2.30 2.32 2.34 2.36 2.33 2.30 2.25 2.20 2.17 2.14 2.15 2.10 2.04 1.98 1.91 1.87 1.89 1.83 1.72 1.75 1.55 1.40 1.29 1.39 1.44 1.47 1.53 1.50 1.37 1.23 1.19 1.20 1.12 0.96 1.25 1.37 1.40 1.44 1.47 1.54 1.61 1.63 1.70 1.72 1.75 1.80 1.89 1.89 1.98 2.02 2.06 2.07 2.07 2.09 2.03 2.02 2.03 2.06 2.10 2.10 2.09 2.08 2.04 2.00 1.98 2.00 1.99 1.99 1.98 1.93 1.87 1.84 1.79 1.73 1.69 1.64 1.58 1.57 1.61 1.59 1.57 1.56 1.52 1.49 1.45
2.24 2.30 2.30 2.31 2.36 2.34 2.25 2.20 2.19 2.17 2.15 2.05 1.98 1.91 1.89 1.85 1.84 1.76 1.63 1.58 1.50 1.35 1.35 1.33 1.44 1.49 1.50 1.51 1.53 1.54 1.48 1.31 1.14 1.16 1.01 1.18 1.33 1.45 1.46 1.50 1.55 1.61 1.62 1.68 1.70 1.69 1.81 1.89 1.88 1.95 1.99 2.03 2.05 2.09 2.08 2.08 2.03 2.03 2.02 2.05 2.05 2.07 2.08 2.05 2.00 2.00 2.03 2.02 1.99 1.99 1.98 1.93 1.87 1.84 1.79 1.73 1.67 1.63 1.63 1.64 1.66 1.65 1.64 1.65 1.64
2.13 2.25 2.20 2.23 2.23 2.17 2.17 2.13 2.08 2.09 2.03 1.99 1.92 1.92 1.87 1.90 1.73 1.65 1.59 1.57 1.53 1.48 1.38 1.40 1.34 1.39 1.51 1.48 1.50 1.56 1.47 1.40 1.40 1.26 1.15 1.00 1.09 1.43 1.59 1.56 1.52 1.54 1.55 1.55 1.65 1.73 1.74 1.79 1.86 1.89 1.91 1.96 2.00 2.01 2.04 2.06 2.08 2.11 2.07 2.03 2.02 2.06 2.06 2.03 1.99 1.99 2.04 2.04 2.00 2.03 2.01 1.98 1.93 1.89 1.85 1.83 1.85 1.86 1.85 1.81 1.76 1.73 1.72 1.70 1.70
2.13 2.10 2.05 1.99 2.03 2.05 2.02 2.01 2.00 1.97 1.93 1.86 1.88 1.83 1.74 1.54 1.47 1.49 1.51 1.50 1.46 1.51 1.49 1.47 1.49 1.47 1.48 1.50 1.53 1.52 1.47 1.45 1.33 1.26 1.13 1.04 1.02 1.06 1.22 1.44 1.53 1.58 1.57 1.53 1.58 1.65 1.72 1.73 1.81 1.85 1.87 1.97 1.98 1.94 1.93 1.98 2.02 2.07 2.04 2.06 2.05 2.08 2.07 2.05 2.03 2.03 2.04 2.03 2.00 2.03 2.02 1.99 1.97 1.93 1.90 1.89 1.90 1.91 1.91 1.89 1.88 1.87 1.85 1.83 1.83
1.97 1.95 1.98 1.97 1.99 1.97 1.96 1.93 1.88 1.84 1.83 1.82 1.73 1.58 1.47 1.49 1.48 1.52 1.56 1.53 1.65 1.64 1.55 1.53 1.53 1.53 1.52 1.48 1.42 1.41 1.32 1.21 1.10 1.07 1.07 1.03 0.89 0.86 0.97 1.06 1.08 1.28 1.43 1.46 1.51 1.56 1.59 1.63 1.69 1.76 1.81 1.82 1.86 1.93 1.94 1.91 1.91 1.92 1.95 2.02 2.08 2.11 2.08 2.06 2.04 2.04 2.04 2.03 2.02 2.02 2.01 1.99 1.98 1.97 1.95 1.95 1.96 1.97 1.97 1.96 1.96 1.98 2.02 2.04 2.01
1.86 1.87 1.88 1.89 1.92 2.00 1.93 1.81 1.81 1.79 1.72 1.66 1.61 1.61 1.44 1.54 1.64 1.67 1.71 1.67 1.60 1.55 1.51 1.46 1.36 1.32 1.27 1.19 1.09 1.05 1.00 0.89 0.86 0.93 0.91 0.90 0.90 0.86 0.86 0.91 1.02 1.02 1.16 1.30 1.39 1.46 1.55 1.55 1.58 1.66 1.70 1.75 1.85 1.88 1.84 1.86 1.89 1.92 1.96 1.99 2.03 2.05 2.06 2.08 2.09 2.05 2.01 1.96 1.95 1.98 2.02 2.03 2.03 2.02 2.02 2.02 2.03 2.03 2.04 2.02 2.01 2.02 2.03 2.03 2.05
1.75 1.79 1.81 1.85 1.89 1.85 1.79 1.74 1.69 1.68 1.61 1.49 1.51 1.50 1.56 1.67 1.69 1.67 1.64 1.58 1.52 1.43 1.34 1.24 1.17 1.09 0.99 0.91 0.87 0.88 0.90 0.87 0.95 0.98 0.90 0.85 0.84 0.86 0.87 0.95 0.99 1.05 1.14 1.16 1.22 1.37 1.42 1.46 1.49 1.57 1.61 1.61 1.72 1.80 1.87 1.90 1.86 1.82 1.84 1.92 1.94 1.92 1.96 2.04 2.10 2.08 2.04 2.02 1.99 1.98 2.01 2.05 2.07 2.10 2.11 2.10 2.10 2.11 2.08 2.08 2.06 2.00 1.97 1.95 1.94
1.76 1.78 1.78 1.76 1.67 1.61 1.59 1.58 1.56 1.55 1.51 1.53 1.58 1.70 1.68 1.73 1.62 1.53 1.49 1.41 1.34 1.26 1.14 1.05 0.91 0.80 0.67 0.62 0.67 0.74 0.79 0.93 0.96 0.91 0.93 0.93 0.94 0.82 0.90 0.89 0.86 0.86 0.95 0.98 1.16 1.22 1.29 1.29 1.44 1.47 1.50 1.50 1.56 1.65 1.75 1.79 1.86 1.87 1.82 1.81 1.88 1.90 1.93 1.95 1.97 1.98 2.00 1.99 2.02 2.02 2.06 2.04 2.08 2.08 2.10 2.11 2.09 2.12 2.07 2.15 2.12 2.08 2.04 1.98 1.92
1.72 1.71 1.73 1.70 1.64 1.63 1.64 1.65 1.65 1.67 1.73 1.78 1.75 1.69 1.65 1.57 1.49 1.37 1.32 1.27 1.15 0.96 0.86 0.76 0.67 0.58 0.51 0.55 0.57 0.62 0.74 0.85 0.91 0.89 0.80 0.82 0.87 0.84 0.74 0.79 0.82 0.76 0.75 0.91 1.01 1.05 1.17 1.26 1.27 1.35 1.42 1.47 1.47 1.50 1.55 1.60 1.63 1.66 1.73 1.76 1.77 1.82 1.87 1.90 1.91 1.91 1.91 1.92 1.95 2.02 2.07 2.04 2.04 2.07 2.08 2.07 2.16 2.13 2.10 2.15 2.10 2.08 2.05 2.03 1.99
1.70 1.71 1.80 1.73 1.68 1.73 1.74 1.75 1.78 1.81 1.77 1.74 1.62 1.53 1.46 1.37 1.23 1.25 1.21 1.16 1.00 0.79 0.63 0.58 0.54 0.48 0.53 0.54 0.48 0.55 0.65 0.78 0.84 0.78 0.87 0.84 0.81 0.72 0.62 0.53 0.55 0.61 0.72 0.79 0.84 0.86 0.97 1.23 1.25 1.23 1.28 1.32 1.32 1.39 1.39 1.41 1.44 1.46 1.47 1.51 1.54 1.55 1.62 1.72 1.75 1.73 1.73 1.76 1.81 1.88 1.94 1.99 2.01 2.06 2.09 2.10 2.06 2.08 2.09 2.02 2.04 2.06 2.04 2.03 2.04
1.73 1.76 1.79 1.83 1.77 1.72 1.80 1.77 1.74 1.74 1.63 1.55 1.49 1.41 1.33 1.23 1.14 1.07 1.07 1.02 0.83 0.62 0.52 0.53 0.47 0.51 0.56 0.53 0.51 0.54 0.63 0.72 0.72 0.79 0.74 0.72 0.70 0.63 0.51 0.57 0.59 0.61 0.65 0.59 0.69 0.77 0.93 0.93 1.10 1.13 1.18 1.23 1.30 1.24 1.25 1.27 1.32 1.27 1.30 1.34 1.36 1.37 1.39 1.44 1.49 1.54 1.60 1.69 1.75 1.79 1.85 1.85 1.83 1.90 1.96 1.89 1.91 1.91 1.97 2.04 2.03 2.04 2.05 2.05 2.04
1.71 1.83 1.81 1.77 1.79 1.75 1.73 1.77 1.76 1.69 1.59 1.51 1.43 1.34 1.25 1.18 1.10 1.00 0.90 0.85 0.64 0.48 0.46 0.47 0.49 0.53 0.57 0.51 0.53 0.57 0.61 0.65 0.64 0.63 0.61 0.63 0.67 0.67 0.72 0.72 0.73 0.56 0.50 0.48 0.55 0.55 0.78 0.82 0.82 1.02 1.03 1.10 1.10 1.13 1.07 1.11 1.17 1.22 1.24 1.27 1.30 1.30 1.26 1.24 1.29 1.35 1.40 1.44 1.53 1.61 1.68 1.75 1.77 1.80 1.75 1.67 1.66 1.72 1.81 1.90 1.94 1.95 1.97 1.99 2.01
1.62 1.60 1.63 1.68 1.68 1.65 1.61 1.64 1.63 1.57 1.50 1.43 1.32 1.23 1.16 1.05 0.94 0.89 0.83 0.77 0.46 0.41 0.45 0.43 0.54 0.52 0.52 0.48 0.49 0.54 0.57 0.53 0.51 0.52 0.59 0.67 0.75 0.84 0.84 0.79 0.72 0.59 0.59 0.52 0.56 0.61 0.55 0.65 0.75 0.84 0.92 0.95 1.07 1.04 1.00 0.95 0.96 1.04 1.11 1.16 1.12 1.28 1.25 1.25 1.20 1.20 1.24 1.28 1.32 1.34 1.40 1.48 1.60 1.69 1.65 1.58 1.62 1.70 1.74 1.79 1.83 1.86 1.89 1.91 1.94
1.54 1.51 1.55 1.54 1.57 1.58 1.62 1.59 1.63 1.57 1.43 1.32 1.27 1.17 1.02 0.89 0.80 0.87 0.75 0.62 0.39 0.42 0.40 0.41 0.48 0.45 0.41 0.35 0.38 0.44 0.49 0.43 0.45 0.52 0.55 0.60 0.64 0.69 0.72 0.78 0.81 0.79 0.71 0.66 0.53 0.70 0.71 0.61 0.69 0.78 0.79 0.86 0.89 0.86 0.86 0.90 1.06 1.01 0.90 0.85 0.85 0.97 1.04 1.05 1.00 0.97 1.01 1.05 1.08 1.12 1.18 1.25 1.35 1.44 1.48 1.51 1.50 1.62 1.68 1.68 1.71 1.73 1.72 1.72 1.73
1.57 1.57 1.58 1.56 1.55 1.56 1.60 1.54 1.50 1.43 1.28 1.24 1.22 1.10 0.95 0.78 0.63 0.73 0.66 0.58 0.42 0.45 0.42 0.42 0.45 0.43 0.36 0.35 0.38 0.41 0.43 0.39 0.38 0.38 0.40 0.44 0.50 0.59 0.66 0.71 0.74 0.79 0.80 0.75 0.68 0.65 0.79 0.76 0.78 0.81 0.85 0.89 0.92 0.89 0.90 0.90 1.05 0.98 0.92 0.85 0.82 0.89 0.88 0.87 0.82 0.79 0.82 0.87 0.93 0.98 1.03 1.09 1.13 1.15 1.22 1.25 1.27 1.29 1.38 1.43 1.50 1.58 1.62 1.63 1.64
1.53 1.55 1.58 1.55 1.65 1.55 1.48 1.45 1.38 1.26 1.17 1.15 1.13 1.02 0.87 0.72 0.62 0.71 0.61 0.58 0.53 0.50 0.53 0.51 0.50 0.50 0.45 0.40 0.42 0.44 0.44 0.39 0.36 0.34 0.34 0.36 0.41 0.50 0.59 0.68 0.71 0.75 0.75 0.75 0.70 0.68 0.75 0.84 0.80 0.75 0.78 0.83 0.85 0.90 0.86 0.86 0.88 0.88 0.94 0.95 1.00 0.96 0.90 0.88 0.88 0.90 0.91 0.93 0.91 0.90 0.93 1.00 1.06 1.10 1.12 1.14 1.18 1.19 1.22 1.26 1.30 1.37 1.49 1.59 1.64
1.52 1.49 1.55 1.47 1.51 1.47 1.41 1.36 1.31 1.25 1.20 1.14 1.04 0.88 0.82 0.68 0.69 0.67 0.68 0.49 0.54 0.55 0.58 0.60 0.52 0.53 0.55 0.50 0.47 0.45 0.42 0.39 0.38 0.38 0.40 0.45 0.50 0.52 0.57 0.60 0.62 0.64 0.69 0.66 0.68 0.69 0.67 0.74 0.76 0.81 0.81 0.84 0.76 0.85 0.84 0.88 0.90 0.92 0.92 0.95 0.98 0.97 0.94 0.94 0.94 0.97 0.99 0.98 0.98 0.99 1.01 1.05 1.08 1.09 1.09 1.09 1.12 1.15 1.20 1.24 1.25 1.27 1.30 1.36 1.44
1.53 1.54 1.48 1.44 1.43 1.44 1.39 1.35 1.30 1.23 1.17 1.11 0.99 0.87 0.81 0.72 0.72 0.70 0.65 0.48 0.53 0.55 0.58 0.62 0.56 0.60 0.63 0.55 0.51 0.49 0.49 0.49 0.49 0.50 0.51 0.50 0.50 0.49 0.50 0.55 0.59 0.64 0.68 0.71 0.71 0.70 0.70 0.72 0.77 0.75 0.79 0.84 0.81 0.83 0.85 0.87 0.88 0.90 0.90 0.92 0.94 0.95 0.93 0.92 0.93 0.93 0.93 0.98 1.07 1.15 1.16 1.15 1.15 1.11 1.06 1.05 1.04 1.04 1.06 1.09 1.15 1.19 1.20 1.21 1.25
1.61 1.67 1.60 1.57 1.47 1.39 1.35 1.26 1.24 1.19 1.13 1.07 0.94 0.85 0.77 0.73 0.74 0.68 0.62 0.56 0.56 0.57 0.59 0.61 0.59 0.66 0.59 0.53 0.52 0.54 0.58 0.57 0.57 0.58 0.59 0.59 0.58 0.55 0.56 0.60 0.60 0.59 0.62 0.66 0.69 0.70 0.72 0.67 0.70 0.72 0.77 0.74 0.72 0.77 0.79 0.83 0.86 0.87 0.86 0.88 0.90 0.88 0.85 0.87 0.87 0.89 0.98 1.07 1.13 1.13 1.11 1.09 1.09 1.10 1.10 1.10 1.09 1.06 1.03 1.01 1.01 1.03 1.08 1.12 1.13
1.67 1.67 1.64 1.65 1.52 1.37 1.27 1.21 1.17 1.14 1.10 1.02 0.90 0.83 0.74 0.67 0.66 0.62 0.62 0.63 0.60 0.61 0.65 0.66 0.65 0.63 0.57 0.55 0.59 0.60 0.63 0.60 0.58 0.59 0.62 0.63 0.65 0.66 0.64 0.66 0.66 0.66 0.66 0.64 0.64 0.66 0.67 0.67 0.68 0.71 0.75 0.71 0.75 0.80 0.78 0.72 0.76 0.81 0.84 0.84 0.86 0.89 0.90 0.89 0.92 0.92 1.00 0.99 1.09 1.11 1.11 1.12 1.12 1.13 1.14 1.14 1.12 1.09 1.05 1.01 0.98 0.96 0.97 0.99 1.01
1.69 1.66 1.62 1.58 1.47 1.33 1.23 1.19 1.15 1.11 1.09 1.06 0.94 0.78 0.76 0.75 0.71 0.65 0.58 0.66 0.67 0.71 0.72 0.67 0.65 0.62 0.58 0.59 0.63 0.67 0.70 0.65 0.58 0.62 0.65 0.65 0.66 0.64 0.65 0.66 0.68 0.68 0.66 0.66 0.66 0.66 0.67 0.67 0.68 0.66 0.74 0.80 0.87 0.91 0.93 0.90 0.84 0.82 0.82 0.84 0.88 0.88 0.86 0.86 0.92 0.95 1.01 1.08 1.14 1.14 1.13 1.15 1.15 1.15 1.15 1.14 1.13 1.10 1.08 1.04 1.03 1.03 0.99 0.96 0.96
1.62 1.61 1.60 1.48 1.39 1.28 1.22 1.20 1.12 1.13 1.12 1.01 0.89 0.83 0.80 0.77 0.70 0.64 0.54 0.54 0.61 0.74 0.74 0.62 0.62 0.63 0.64 0.65 0.68 0.73 0.73 0.69 0.67 0.69 0.70 0.68 0.67 0.66 0.69 0.67 0.70 0.71 0.71 0.71 0.69 0.66 0.66 0.64 0.66 0.70 0.71 0.79 0.80 0.78 0.87 0.89 0.86 0.83 0.77 0.75 0.73 0.77 0.79 0.81 0.80 0.85 0.95 1.03 1.11 1.14 1.12 1.13 1.13 1.13 1.14 1.14 1.14 1.14 1.13 1.10 1.07 1.07 1.07 1.05 1.03
1.56 1.60 1.54 1.40 1.29 1.25 1.22 1.18 1.15 1.19 1.14 1.01 0.91 0.85 0.81 0.74 0.69 0.58 0.46 0.43 0.55 0.71 0.69 0.61 0.62 0.65 0.70 0.73 0.76 0.76 0.76 0.73 0.76 0.77 0.76 0.71 0.71 0.71 0.76 0.74 0.73 0.73 0.73 0.73 0.72 0.73 0.74 0.72 0.68 0.67 0.70 0.69 0.74 0.81 0.86 0.85 0.81 0.81 0.83 0.78 0.72 0.78 0.83 0.85 0.79 0.76 0.92 1.02 1.03 1.08 1.12 1.14 1.16 1.18 1.17 1.17 1.19 1.18 1.17 1.16 1.16 1.15 1.14 1.13 1.12
1.56 1.54 1.46 1.38 1.27 1.22 1.22 1.19 1.16 1.15 1.07 0.97 0.89 0.83 0.77 0.71 0.59 0.44 0.38 0.39 0.54 0.63 0.59 0.59 0.65 0.72 0.76 0.73 0.70 0.73 0.79 0.77 0.79 0.81 0.81 0.77 0.76 0.76 0.79 0.75 0.72 0.71 0.70 0.70 0.73 0.77 0.81 0.84 0.83 0.84 0.80 0.78 0.80 0.76 0.73 0.79 0.80 0.80 0.87 0.87 0.81 0.81 0.80 0.80 0.85 0.93 0.97 0.98 1.02 1.05 1.07 1.11 1.10 1.12 1.15 1.17 1.20 1.21 1.20 1.17 1.17 1.20 1.21 1.21 1.20
1.53 1.46 1.40 1.33 1.26 1.21 1.18 1.13 1.11 1.02 0.97 0.91 0.83 0.73 0.65 0.53 0.42 0.38 0.35 0.39 0.50 0.57 0.57 0.64 0.66 0.69 0.70 0.63 0.66 0.69 0.73 0.78 0.81 0.80 0.78 0.82 0.90 0.88 0.82 0.78 0.74 0.70 0.67 0.70 0.76 0.82 0.86 0.86 0.89 0.90 0.86 0.84 0.84 0.87 0.88 0.92 0.96 0.97 0.93 0.93 0.89 0.93 0.90 0.83 0.80 0.86 0.94 0.91 0.89 0.91 1.00 1.13 1.14 1.14 1.16 1.13 1.18 1.25 1.25 1.24 1.22 1.23 1.25 1.28 1.27
1.41 1.37 1.32 1.26 1.20 1.18 1.11 1.07 1.01 0.93 0.85 0.79 0.69 0.59 0.49 0.41 0.36 0.32 0.31 0.43 0.51 0.57 0.62 0.66 0.62 0.67 0.65 0.68 0.69 0.72 0.74 0.78 0.77 0.77 0.83 0.84 0.83 0.80 0.78 0.77 0.78 0.78 0.81 0.83 0.83 0.88 0.90 0.91 0.94 0.96 0.95 0.93 0.96 0.99 0.96 0.94 0.98 1.01 0.96 0.95 0.94 0.94 0.91 0.83 0.73 0.81 0.97 0.95 0.92 0.89 0.94 1.09 1.09 1.02 1.06 1.11 1.17 1.18 1.18 1.18 1.22 1.23 1.26 1.29 1.31
1.33 1.30 1.24 1.19 1.17 1.12 1.07 0.98 0.90 0.83 0.77 0.70 0.61 0.50 0.38 0.32 0.31 0.36 0.47 0.53 0.57 0.62 0.67 0.64 0.68 0.69 0.68 0.68 0.73 0.73 0.75 0.78 0.76 0.81 0.77 0.78 0.77 0.75 0.73 0.76 0.83 0.94 1.01 0.97 0.92 0.93 0.96 0.95 0.95 0.98 0.99 0.97 1.00 1.05 1.06 1.02 0.97 0.97 1.00 1.00 1.00 1.02 0.99 0.93 0.90 0.84 1.03 1.13 1.00 0.91 0.86 0.96 0.97 0.92 0.91 0.99 1.09 1.15 1.19 1.20 1.19 1.20 1.26 1.33 1.34
1.32 1.25 1.21 1.14 1.09 1.00 0.93 0.88 0.80 0.75 0.66 0.62 0.56 0.48 0.34 0.31 0.41 0.49 0.60 0.62 0.65 0.67 0.66 0.69 0.71 0.71 0.71 0.71 0.70 0.73 0.73 0.75 0.82 0.77 0.73 0.71 0.71 0.71 0.75 0.84 0.96 1.04 1.04 1.06 1.11 1.12 1.13 1.09 1.05 1.06 1.09 1.09 1.03 1.02 1.10 1.10 1.11 1.02 1.04 1.04 1.04 1.00 1.00 1.01 1.03 1.00 1.04 1.16 1.08 1.01 0.93 1.02 1.06 0.99 0.90 0.96 1.08 1.17 1.21 1.24 1.25 1.27 1.30 1.34 1.36
1.21 1.20 1.16 1.10 0.95 0.82 0.77 0.78 0.73 0.68 0.64 0.61 0.53 0.42 0.37 0.44 0.49 0.58 0.62 0.68 0.69 0.69 0.70 0.72 0.72 0.72 0.71 0.68 0.69 0.70 0.75 0.79 0.76 0.73 0.72 0.70 0.68 0.68 0.78 0.93 1.01 1.06 1.10 1.15 1.18 1.22 1.23 1.19 1.15 1.11 1.17 1.17 1.11 1.12 1.13 1.14 1.07 1.06 1.07 1.04 1.05 1.00 1.00 1.04 1.11 1.08 1.13 1.20 1.08 1.03 0.92 0.95 1.04 0.99 0.93 1.01 1.14 1.22 1.28 1.33 1.33 1.34 1.36 1.40 1.41
1.24 1.15 1.03 0.90 0.85 0.78 0.74 0.79 0.71 0.65 0.61 0.55 0.48 0.42 0.45 0.48 0.50 0.58 0.61 0.62 0.67 0.70 0.71 0.72 0.71 0.68 0.67 0.67 0.71 0.77 0.80 0.76 0.75 0.74 0.70 0.68 0.67 0.73 0.87 0.99 1.07 1.13 1.17 1.22 1.26 1.26 1.25 1.24 1.21 1.18 1.17 1.15 1.12 1.11 1.11 1.14 1.12 1.11 1.14 1.11 1.08 1.03 1.03 1.08 1.06 1.06 1.09 1.18 1.15 1.06 0.85 0.96 1.07 0.99 1.02 1.10 1.17 1.23 1.33 1.40 1.45 1.45 1.47 1.48 1.47
1.17 1.05 0.93 0.84 0.79 0.73 0.67 0.66 0.62 0.54 0.51 0.52 0.50 0.45 0.49 0.50 0.50 0.55 0.55 0.58 0.61 0.65 0.69 0.68 0.61 0.60 0.63 0.71 0.78 0.76 0.74 0.71 0.72 0.71 0.70 0.70 0.71 0.80 0.96 1.07 1.12 1.15 1.20 1.29 1.31 1.31 1.29 1.26 1.22 1.18 1.17 1.16 1.13 1.10 1.09 1.10 1.09 1.11 1.14 1.17 1.13 1.04 0.95 0.89 0.84 0.93 0.99 1.16 1.19 1.08 0.94 0.95 1.09 1.03 1.08 1.20 1.25 1.22 1.34 1.41 1.46 1.49 1.52 1.54 1.50
0.96 0.86 0.81 0.82 0.79 0.67 0.55 0.46 0.35 0.49 0.53 0.57 0.52 0.48 0.50 0.51 0.51 0.50 0.53 0.55 0.60 0.64 0.63 0.57 0.52 0.54 0.70 0.79 0.73 0.71 0.70 0.70 0.69 0.68 0.68 0.73 0.80 0.98 1.07 1.09 1.12 1.14 1.17 1.26 1.27 1.24 1.24 1.25 1.25 1.24 1.23 1.19 1.15 1.15 1.14 1.15 1.15 1.14 1.09 1.01 0.97 0.98 0.90 0.79 0.79 0.83 0.92 1.08 1.14 1.14 1.05 0.97 1.12 1.11 1.11 1.20 1.26 1.28 1.32 1.37 1.42 1.52 1.65 1.58 1.55
0.85 0.87 0.95 0.88 0.82 0.69 0.52 0.39 0.35 0.54 0.60 0.59 0.51 0.51 0.51 0.51 0.51 0.49 0.50 0.53 0.55 0.54 0.47 0.47 0.52 0.59 0.71 0.79 0.72 0.71 0.69 0.68 0.68 0.70 0.76 0.88 1.01 1.09 1.10 1.08 1.08 1.07 1.10 1.13 1.13 1.17 1.24 1.27 1.29 1.29 1.25 1.20 1.19 1.18 1.18 1.19 1.22 1.24 1.09 0.92 0.97 0.99 0.87 0.80 0.74 0.83 0.95 1.03 1.11 1.24 1.07 1.08 1.17 1.23 1.20 1.27 1.26 1.31 1.38 1.48 1.52 1.55 1.60 1.62 1.60
0.92 0.80 0.89 0.78 0.71 0.60 0.47 0.43 0.47 0.56 0.60 0.54 0.52 0.53 0.54 0.52 0.52 0.52 0.51 0.51 0.49 0.46 0.47 0.49 0.56 0.61 0.66 0.72 0.75 0.75 0.72 0.69 0.71 0.79 0.93 1.07 1.12 1.12 1.11 1.08 1.03 1.01 1.05 1.11 1.14 1.18 1.23 1.25 1.26 1.26 1.22 1.19 1.22 1.22 1.20 1.22 1.24 1.28 1.26 1.17 1.11 0.99 0.86 0.81 0.80 0.80 0.80 0.93 1.15 1.27 1.04 1.12 1.16 1.25 1.25 1.15 1.10 1.28 1.43 1.49 1.54 1.57 1.59 1.60 1.58
Wind_Speed
9 9 10 10 11 12 12 13 13 13 14 14 15 15 16 17 17 18 18 19 18 17 16 15 14 13 13 13 13 13 13 12 12 11 11 10 10 10 10 11 11 12 13 14 15 16 16 16 16 15 15 14 14 14 14 14 15 15 15 16 16 15 15 15 14 14 13 13 13 12 12 12 12 12 11 11 10 10 10 10 10 10 10 10 10
10 10 11 11 12 12 13 13 14 14 14 15 16 17 17 17 17 18 18 18 17 16 16 15 14 14 14 14 14 14 14 13 13 12 11 10 10 10 10 11 12 12 13 14 15 16 16 16 16 16 16 15 15 15 15 15 15 15 15 16 16 16 16 16 15 14 14 13 13 13 13 12 12 12 12 11 11 10 10 10 10 10 10 10 10
11 11 11 12 13 13 14 14 14 15 15 15 17 18 18 18 17 18 18 18 17 17 16 16 15 15 14 14 15 15 14 14 14 13 12 11 10 10 10 11 12 12 13 14 15 17 17 16 17 17 17 16 16 16 16 16 16 16 16 16 16 16 16 17 16 15 14 14 14 14 14 13 13 12 12 12 11 11 11 10 10 10 10 10 10
12 13 13 13 14 14 15 15 15 15 15 16 17 18 18 18 17 18 18 18 17 16 16 16 15 15 15 15 15 14 14 14 13 13 13 11 11 10 10 11 11 12 13 15 16 17 17 17 17 18 17 17 16 16 16 17 17 17 17 17 17 16 17 17 17 16 15 15 15 15 14 14 14 13 13 12 12 12 11 11 11 10 10 10 10
14 14 14 14 15 15 15 15 15 15 15 16 17 17 18 18 18 19 19 18 17 16 16 16 15 14 14 14 14 13 13 13 13 13 13 12 11 11 11 11 11 12 13 14 16 17 18 17 18 18 18 18 17 17 17 17 18 18 17 17 18 17 17 17 17 17 16 16 16 16 15 15 15 14 14 13 13 13 12 12 11 11 11 11 10
15 15 15 15 15 15 15 15 15 15 16 17 17 17 17 18 18 19 19 18 16 16 16 15 14 13 14 14 13 13 13 13 13 13 13 12 11 11 11 11 11 12 12 14 15 17 18 18 18 18 19 19 18 17 18 18 18 18 18 18 18 18 18 18 18 18 18 17 16 16 16 16 16 16 15 15 14 14 13 13 13 12 12 11 11
16 16 16 16 15 16 15 15 16 16 17 17 17 17 17 18 19 19 19 17 16 16 15 14 13 13 13 13 13 12 12 12 13 13 12 11 11 10 10 10 10 11 12 13 14 16 18 18 18 18 18 19 19 18 18 18 18 19 19 19 19 19 19 19 19 19 19 18 17 17 17 17 17 17 16 16 16 15 15 14 14 13 13 13 12
16 16 16 16 16 16 16 16 16 17 17 17 17 17 17 18 19 19 19 17 16 15 14 13 13 13 13 13 12 12 11 11 12 12 12 11 10 9 8 8 9 10 10 11 13 14 17 19 18 17 18 19 19 19 19 18 19 19 19 20 20 20 20 19 20 20 19 19 19 19 18 18 18 18 17 17 17 17 16 16 15 15 14 14 13
17 17 17 17 17 17 17 16 17 17 17 17 17 17 17 18 20 20 19 17 15 14 13 12 12 13 13 12 12 11 10 11 12 12 11 10 9 8 6 6 7 8 9 10 12 13 15 18 18 17 17 18 19 20 20 19 19 19 19 20 20 21 21 20 20 20 20 20 20 20 20 19 19 19 19 19 18 18 18 17 17 16 16 15 15
18 18 18 18 18 18 17 17 17 17 17 17 17 18 18 20 21 20 18 16 15 13 12 12 12 12 12 11 11 10 9 10 11 11 11 10 9 8 5 4 5 6 7 9 10 11 12 15 17 17 17 18 19 20 21 20 20 20 20 20 21 21 22 22 22 21 21 21 21 21 21 20 20 20 20 20 20 19 19 19 18 18 18 17 17
19 20 20 19 19 19 18 18 17 17 17 17 18 18 20 21 21 19 16 15 13 11 11 11 11 11 12 11 9 9 9 9 10 10 10 10 8 7 5 3 3 5 6 7 9 10 11 13 15 16 16 17 18 20 21 21 21 21 21 21 21 22 22 23 23 23 22 22 22 22 22 22 22 22 21 21 21 21 20 20 20 19 19 19 18
20 20 21 21 20 20 19 19 19 18 17 18 18 19 20 20 19 16 13 12 10 9 9 9 10 11 11 10 9 8 8 8 9 9 9 9 8 7 5 4 2 3 4 5 7 9 10 11 13 15 15 17 18 19 20 21 21 22 22 22 22 22 23 24 24 24 24 24 23 23 23 23 23 23 23 22 22 22 22 21 21 21 21 20 20
22 21 21 21 21 21 20 20 19 18 17 17 17 18 19 18 16 13 11 9 8 8 8 8 10 10 10 10 8 7 7 7 8 9 9 8 8 7 6 4 3 3 4 5 6 8 9 10 12 13 15 16 17 19 20 21 22 22 22 23 23 23 24 24 25 25 25 25 25 25 25 25 24 24 24 24 23 23 23 23 23 23 22 22 22
22 22 22 22 21 21 20 19 18 17 16 16 17 17 17 15 13 10 8 8 8 7 7 8 9 9 9 9 8 7 7 7 8 8 8 8 8 7 6 5 4 4 4 5 6 7 8 10 10 12 13 14 16 17 19 20 21 22 22 23 23 23 24 25 25 26 26 27 26 26 26 26 26 26 25 25 25 25 24 24 24 24 24 23 23
21 21 21 21 21 20 19 18 17 16 15 15 16 15 14 12 10 9 7 7 8 7 7 8 8 9 9 8 8 8 7 7 8 8 8 8 8 7 6 6 5 5 5 6 7 7 8 9 10 11 12 14 14 15 17 19 20 22 22 23 23 24 24 25 26 26 27 28 28 27 27 27 27 27 27 27 26 26 26 26 25 25 25 25 25
18 19 19 20 20 19 18 16 15 14 14 14 14 13 12 10 8 7 7 7 8 8 8 8 8 8 8 8 8 8 7 8 9 8 8 8 8 7 7 7 6 6 6 7 8 8 8 9 10 11 12 13 14 15 16 18 19 21 22 23 24 24 24 25 25 26 27 28 29 29 28 28 28 29 29 28 28 27 27 27 27 27 26 26 26
15 16 16 16 15 14 14 13 13 13 13 12 12 10 9 7 7 6 7 7 8 8 9 9 8 7 7 8 8 8 9 10 9 8 8 8 8 8 8 8 7 7 7 8 9 9 10 10 10 11 13 14 15 15 16 17 18 20 21 22 24 24 24 25 25 26 27 28 28 29 30 30 30 30 30 30 30 29 29 28 28 28 28 27 27
12 13 12 11 8 7 8 9 10 11 11 10 9 8 6 6 6 6 6 6 7 8 9 9 8 7 8 8 9 10 11 11 10 10 9 9 9 9 9 9 8 8 8 8 9 9 10 11 11 12 13 15 15 16 16 17 18 19 20 22 23 24 24 24 25 26 26 27 28 29 30 31 31 31 31 32 32 31 31 31 30 30 29 29 29
10 10 10 8 6 4 4 5 6 7 6 6 5 5 4 5 5 6 6 6 7 8 9 10 9 9 9 9 10 11 11 11 11 10 11 10 10 10 10 9 9 10 9 9 9 9 9 11 11 12 13 15 16 17 17 18 18 19 20 21 22 23 24 25 25 26 27 27 28 29 30 31 32 32 33 33 33 33 33 33 33 32 32 31 31
8 8 8 7 5 3 3 4 4 3 3 3 3 3 4 5 6 6 6 7 7 8 9 10 10 10 10 11 11 11 12 12 11 10 11 11 11 10 10 10 10 11 11 10 10 9 10 10 11 12 13 15 16 17 18 18 19 20 20 21 22 23 24 25 25 26 27 27 28 29 30 31 32 33 34 34 34 34 34 35 35 34 34 34 33
7 7 7 6 5 4 4 4 4 3 3 3 3 4 5 6 6 7 7 7 8 8 9 10 11 11 11 11 11 11 12 13 12 11 11 12 11 11 11 11 11 11 12 11 11 11 10 10 11 11 12 13 14 16 17 19 20 21 21 22 23 23 24 24 25 26 27 28 28 29 30 30 31 32 33 34 35 35 35 36 36 36 36 36 36
7 7 7 6 5 5 4 4 4 3 3 3 4 5 5 6 6 7 7 8 8 9 10 10 11 11 12 12 11 12 13 12 11 12 12 11 12 12 12 12 12 12 12 12 12 12 12 11 12 12 12 13 14 15 16 17 19 20 22 23 23 24 24 24 25 26 27 27 28 29 30 30 31 32 33 34 35 35 36 36 36 36 36 36 36
7 6 6 6 6 5 4 4 4 4 4 5 5 5 5 6 7 7 7 8 9 10 10 11 12 12 12 12 12 13 14 13 12 12 12 12 12 13 13 13 14 13 13 13 12 12 12 12 13 13 13 14 14 14 15 16 17 19 20 22 22 23 24 25 25 26 26 27 28 29 30 31 31 32 33 34 35 35 35 35 35 36 36 36 36
8 7 7 6 6 5 5 5 5 5 5 6 5 5 6 6 7 8 8 9 10 11 11 11 12 12 12 13 13 14 14 13 13 13 13 13 13 12 13 14 14 14 13 13 12 12 12 13 13 13 14 14 15 15 15 16 16 17 19 20 21 22 23 24 25 25 26 27 28 29 30 31 31 31 32 33 34 34 35 35 35 35 35 35 35
8 7 7 6 6 6 5 5 5 5 6 5 5 6 7 7 8 9 9 9 11 11 11 12 12 12 13 13 13 14 13 14 14 13 13 14 13 13 14 14 14 14 14 13 12 12 13 13 13 14 14 15 14 15 15 16 17 17 18 19 20 21 23 24 25 25 26 27 28 29 30 30 30 31 32 32 33 33 33 34 34 34 35 35 35
8 7 7 6 7 6 6 6 6 6 6 6 6 7 7 7 9 9 9 10 11 12 12 12 13 13 13 13 13 13 13 14 14 14 14 14 14 14 14 14 15 15 14 14 13 13 14 14 14 14 15 15 15 15 16 16 17 18 18 19 20 21 22 24 25 25 26 27 28 29 29 28 29 30 30 30 31 32 32 32 32 33 33 33 34
8 8 7 7 7 6 6 7 7 7 7 7 7 8 8 9 9 10 10 11 12 13 13 13 13 13 13 13 13 13 14 14 14 14 14 14 14 15 15 14 15 15 15 15 15 15 15 15 15 15 15 16 16 17 18 18 18 19 19 19 20 20 22 23 24 25 26 27 28 29 28 28 28 29 29 28 28 28 29 29 30 31 31 31 32
8 8 8 7 7 7 7 7 7 7 7 8 8 9 9 10 9 10 11 12 13 14 13 13 13 13 13 14 14 14 14 15 15 15 15 14 15 15 15 15 15 15 15 16 16 16 16 16 16 17 17 17 18 19 19 19 20 20 20 20 20 21 21 22 23 24 25 26 27 28 28 28 29 29 29 28 27 26 27 27 28 29 29 29 30
8 8 8 8 7 8 8 8 8 8 8 9 9 9 10 10 10 11 12 13 14 14 13 13 13 13 14 14 14 15 15 15 15 16 15 15 15 15 15 16 16 15 15 16 16 17 18 18 18 18 18 19 19 19 19 20 20 21 21 21 21 22 22 23 23 23 24 25 26 27 27 28 28 29 29 29 28 28 27 27 27 28 29 29 29
9 8 8 8 8 8 8 8 8 8 8 9 9 9 10 10 11 11 12 13 13 13 13 13 13 14 14 15 15 15 16 16 16 16 16 16 16 16 16 17 17 16 16 16 17 17 18 19 19 19 19 19 19 19 19 20 20 20 20 21 22 22 22 22 23 23 24 25 25 26 26 26 27 27 27 28 28 28 28 28 27 28 28 29 29
9 9 9 9 9 9 8 8 7 8 9 9 9 10 10 11 12 12 13 14 14 13 13 13 14 14 15 16 15 16 16 17 17 17 17 17 17 17 17 17 17 17 17 17 17 17 17 18 19 19 20 19 19 19 20 20 20 20 21 22 22 22 22 23 24 24 25 25 26 26 26 26 27 27 27 27 28 28 28 28 28 28 28 28 29
9 9 9 9 9 9 9 8 8 9 10 10 9 10 11 12 12 12 13 14 14 13 14 14 14 15 16 16 16 16 17 17 17 18 18 18 18 18 18 18 18 18 18 18 18 18 18 19 19 20 20 20 20 20 21 21 20 20 22 22 22 21 22 23 24 25 25 25 25 25 26 26 26 27 27 27 28 28 28 28 29 29 28 28 29
9 9 9 9 9 9 9 9 10 10 10 10 10 11 12 12 12 12 13 14 14 14 14 15 16 16 16 17 17 17 18 18 18 18 18 18 19 19 19 19 19 19 19 19 19 19 19 20 20 21 21 21 22 22 22 21 21 21 22 21 20 20 21 22 23 24 25 25 25 26 26 26 26 26 27 27 27 28 28 29 29 29 29 29 29
10 10 10 10 10 9 10 10 10 10 10 10 11 12 12 13 12 13 14 14 14 15 15 15 16 17 17 18 18 18 19 19 19 18 19 19 19 19 20 20 20 20 20 20 20 20 21 21 21 21 21 21 22 22 22 22 22 22 22 21 20 20 21 22 22 23 24 25 26 26 26 27 27 27 27 27 27 28 29 29 29 29 30 30 30
10 10 10 10 10 10 10 10 10 10 10 10 11 12 12 12 13 13 14 15 15 15 15 16 17 17 18 18 19 19 19 19 19 19 20 20 20 20 20 20 21 21 21 21 21 22 22 22 22 22 22 22 23 23 23 23 23 22 22 22 22 22 22 22 23 23 24 24 25 24 25 26 26 27 27 28 28 29 29 30 30 30 30 30 31
11 11 11 11 11 10 10 11 10 10 10 11 12 12 12 13 13 14 15 15 15 16 16 17 18 18 18 19 19 19 19 19 19 19 20 20 20 20 20 21 21 21 22 22 23 23 23 23 23 23 24 24 25 25 25 25 24 24 23 23 23 23 24 24 24 24 24 24 23 23 24 24 25 26 27 27 28 29 29 30 31 32 32 32 32
11 11 11 11 11 11 11 11 11 11 11 11 12 13 13 13 14 15 16 16 16 17 17 18 18 18 19 19 19 19 19 19 20 20 20 20 21 21 21 21 22 22 23 23 24 24 24 25 24 24 25 25 25 25 24 24 24 24 24 24 23 23 24 24 24 24 24 23 23 23 23 23 24 25 25 25 26 27 28 30 31 32 33 34 34
11 11 11 11 11 11 11 11 11 12 12 12 13 13 13 14 15 16 16 16 17 17 18 18 18 18 19 19 19 19 19 20 21 21 21 21 22 22 22 22 23 24 24 25 25 26 26 26 26 26 26 25 24 23 23 23 23 23 24 24 24 24 24 24 24 24 24 24 23 23 23 24 24 24 25 25 26 26 27 29 31 32 33 34 35
11 11 11 11 11 11 11 11 12 12 12 12 12 12 13 14 16 17 17 17 17 18 18 19 19 19 19 19 19 19 20 21 21 21 22 22 23 23 23 24 24 25 25 26 27 27 28 28 28 28 27 27 26 25 25 24 24 24 24 24 25 25 24 24 24 24 25 25 25 24 24 24 25 25 26 26 27 27 27 28 29 31 32 33 34
11 11 11 12 12 11 11 12 12 12 11 11 12 13 14 15 17 18 18 18 18 19 19 19 19 19 20 20 20 20 21 22 22 22 23 24 24 24 25 25 26 26 27 28 29 30 30 30 29 29 29 28 27 27 26 25 25 24 24 24 24 24 24 24 24 23 24 24 24 24 24 24 24 24 25 25 26 26 26 27 28 29 30 31 32
12 12 12 12 12 11 12 12 12 11 11 12 13 15 16 17 18 18 19 19 19 19 19 19 19 19 20 20 21 21 22 23 24 24 25 26 26 26 26 26 27 28 30 31 32 31 30 30 30 29 29 29 28 27 26 26 25 24 23 23 23 23 23 24 23 23 23 23 23 23 22 23 23 23 23 23 24 24 24 25 26 27 29 30 31
12 12 12 12 12 12 12 12 11 11 12 14 15 16 17 18 19 19 20 19 18 18 18 19 20 20 20 21 22 23 24 25 25 26 27 27 27 27 28 29 30 31 32 33 32 31 29 29 29 28 28 28 27 27 26 26 26 25 24 23 23 22 22 22 22 22 21 21 21 21 21 22 23 23 23 23 23 23 23 23 24 26 27 29 30
12 12 12 12 12 12 12 12 11 12 13 15 16 17 18 19 19 20 20 18 18 18 19 19 20 21 22 23 24 24 25 25 26 27 28 28 29 30 31 32 33 33 33 33 32 30 28 28 27 27 27 27 27 27 27 26 26 25 25 24 23 22 21 21 20 20 19 19 19 20 20 21 21 22 22 22 23 23 23 22 23 24 26 27 28
13 12 12 12 12 13 12 11 12 13 14 15 17 18 19 20 20 20 18 18 18 19 19 20 21 22 23 24 25 25 26 27 28 28 29 30 31 32 33 34 34 34 34 33 31 28 27 27 26 26 26 26 27 27 27 26 26 26 25 24 23 22 21 20 20 19 18 18 18 18 19 20 20 20 21 21 21 21 21 21 22 23 24 25 26
13 12 13 12 12 13 12 12 12 14 15 16 17 19 19 20 20 19 18 18 19 20 20 21 22 23 24 25 26 27 27 28 29 29 30 32 32 33 34 34 34 34 33 31 28 26 26 26 25 25 25 25 25 26 26 26 25 25 24 23 22 22 21 20 19 19 18 18 17 18 18 18 18 19 19 19 19 20 20 20 20 21 22 23 24
13 13 13 13 12 13 12 12 13 14 16 17 18 19 19 19 19 18 18 19 19 20 21 22 23 24 26 26 27 28 28 28 30 31 32 32 33 34 34 34 33 31 29 26 24 24 24 24 24 24 24 24 25 25 24 24 24 24 23 22 22 21 21 20 19 19 18 17 17 17 17 17 17 17 17 17 17 18 18 18 18 18 19 21 22
13 13 13 12 12 12 12 13 13 15 16 17 18 19 19 19 19 19 19 20 20 21 22 23 24 26 27 27 28 28 29 29 31 32 33 33 34 34 33 32 29 26 24 23 23 23 24 23 24 24 24 25 25 24 23 23 23 23 23 22 21 21 20 20 19 18 17 17 16 16 16 16 15 15 15 15 15 16 16 16 16 16 17 17 19
13 13 13 12 12 13 13 13 14 15 16 17 18 18 18 19 19 19 20 21 21 22 23 24 26 27 27 28 28 29 30 31 33 33 34 34 34 33 30 27 25 24 23 23 24 24 24 23 24 24 24 25 24 23 22 21 21 21 22 22 21 20 20 19 18 17 16 15 14 14 15 14 13 13 13 13 14 14 15 15 15 16 15 15 15
13 13 12 12 13 13 14 14 14 15 16 18 18 18 18 19 20 20 21 22 22 23 24 26 27 28 28 28 29 30 32 32 33 34 35 34 32 28 26 24 24 24 23 23 23 23 23 23 23 24 24 23 22 20 19 18 18 18 19 20 20 19 18 18 17 16 15 14 13 13 13 12 11 12 12 12 13 13 12 12 12 13 13 12 12
13 13 12 12 13 14 14 15 15 15 16 17 18 18 18 19 20 21 22 23 24 24 26 27 28 28 28 29 30 31 32 33 33 34 33 31 27 24 23 23 24 23 23 23 22 22 22 22 22 22 22 20 19 17 15 15 14 14 15 16 17 16 16 16 16 15 14 13 12 11 11 11 10 10 11 11 10 10 9 9 9 9 10 10 10
12 12 13 12 13 14 15 15 15 15 16 17 17 18 19 20 21 22 23 24 24 26 27 27 28 29 29 30 30 32 32 33 33 33 30 26 23 23 23 23 23 22 23 23 22 22 22 22 22 21 19 17 15 13 12 11 11 10 11 12 13 13 13 14 14 14 13 12 10 9 9 9 9 9 9 8 8 8 7 7 7 7 7 8 8
Wind_Direction
295 295 296 304 307 307 310 312 315 315 316 321 323 323 324 324 325 327 327 328 328 330 330 328 327 325 324 325 326 324 321 318 314 308 303 295 287 276 261 252 243 234 227 223 221 216 214 211 209 210 210 210 209 206 204 201 199 197 196 195 195 194 193 191 190 188 184 181 179 177 178 177 176 176 175 175 175 175 174 172 172 172 173 173 173
293 294 298 301 303 305 308 310 312 314 315 318 320 321 322 322 323 325 326 327 328 328 328 327 325 323 322 322 323 322 319 316 313 308 303 295 288 277 262 253 244 235 229 224 222 219 216 213 210 210 210 211 211 209 207 205 203 202 200 199 198 198 197 197 196 195 192 188 187 185 185 184 183 182 182 181 181 181 181 180 180 180 179 179 180
290 293 295 298 300 303 306 308 309 312 314 316 318 320 321 321 322 325 326 326 326 326 326 323 321 320 320 320 320 320 318 316 313 308 304 295 287 278 266 258 247 237 232 228 224 221 218 216 213 211 210 212 213 211 209 207 206 205 204 202 201 202 201 201 202 202 200 196 194 193 192 191 190 189 188 187 187 187 187 187 187 187 186 186 187
289 292 294 296 300 302 304 306 308 310 312 315 317 320 322 323 323 325 325 325 324 324 324 322 320 319 320 320 319 319 319 317 315 310 304 297 288 281 271 262 251 241 236 231 225 221 220 220 216 213 212 213 214 214 212 210 209 208 207 205 204 205 205 205 206 206 206 203 200 200 199 198 196 195 195 194 194 194 193 193 193 193 193 192 193
288 292 293 295 297 300 302 304 307 308 310 314 316 318 321 323 323 324 324 323 321 321 322 321 321 321 322 323 323 321 319 319 318 314 308 303 295 285 274 261 251 243 239 233 227 223 223 221 218 215 214 215 217 218 216 213 212 211 210 209 208 209 208 208 209 209 210 208 205 205 204 203 202 201 201 201 201 201 200 199 199 199 199 198 198
287 290 291 293 295 297 300 302 305 306 308 311 314 316 318 319 321 322 323 322 320 320 321 321 320 321 324 325 324 323 322 322 322 320 316 310 302 289 274 259 250 245 240 234 228 226 225 222 219 217 215 216 219 221 220 217 215 213 213 213 212 212 211 211 212 212 212 213 210 208 208 207 207 206 206 205 206 206 205 205 205 205 205 205 205
286 288 289 291 293 296 299 301 303 303 305 308 312 315 317 318 321 322 322 321 319 319 321 321 319 321 324 325 325 324 325 326 328 327 323 318 311 297 275 257 249 245 241 234 230 228 225 222 219 218 217 217 218 220 220 219 217 216 215 215 216 215 214 214 214 215 215 216 214 212 211 211 210 211 211 210 210 210 209 210 210 210 211 211 211
285 287 288 289 291 294 296 298 300 301 303 306 309 312 314 317 320 321 320 318 317 318 320 320 319 321 325 325 325 326 327 331 335 335 332 327 322 310 283 258 246 243 242 236 231 229 225 221 219 219 220 220 220 220 220 221 220 219 218 217 218 218 218 218 217 217 217 218 218 217 215 214 214 214 214 214 214 214 213 213 214 215 216 216 216
285 287 288 288 289 291 293 295 297 299 301 304 307 310 313 315 317 319 317 314 313 315 317 318 319 322 324 323 325 328 330 335 340 343 341 337 333 326 304 266 245 243 245 237 232 230 225 221 219 221 223 222 222 221 221 222 222 222 222 220 220 220 220 221 220 220 219 220 221 221 219 218 218 217 217 217 217 218 218 217 218 219 219 220 220
284 285 286 286 287 288 291 294 295 297 300 302 306 310 312 314 315 315 313 310 309 310 312 315 320 323 323 323 325 329 332 336 341 345 348 346 343 340 330 286 247 246 245 238 233 231 226 223 222 224 226 225 224 223 222 223 225 225 225 224 223 222 222 223 223 223 222 221 222 223 223 222 221 221 220 220 221 221 221 222 222 223 223 224 224
281 282 283 283 284 286 288 291 293 295 297 300 304 308 311 314 315 314 313 310 307 307 310 314 320 324 323 324 325 327 333 338 341 347 352 353 352 349 347 324 261 250 246 240 234 230 229 227 225 226 227 227 225 225 224 225 227 227 226 226 226 226 226 225 226 226 225 224 224 224 224 224 224 224 223 224 224 225 225 225 226 227 227 228 228
281 281 282 281 280 282 284 287 290 293 295 299 302 308 312 315 316 315 315 315 313 313 315 316 321 325 326 327 325 323 330 338 344 350 352 355 356 352 350 342 300 269 255 246 235 230 231 229 227 228 229 229 228 227 227 227 228 228 228 228 229 230 229 228 228 228 227 227 226 226 226 226 226 226 226 226 227 227 228 229 229 230 230 231 231
280 282 282 280 278 279 280 283 286 289 292 297 303 309 314 316 317 316 318 319 321 323 322 321 321 324 330 331 329 323 327 338 345 349 350 354 356 353 348 337 313 288 268 252 241 236 235 231 230 231 230 230 230 230 230 230 230 230 230 230 231 232 232 231 231 230 229 229 229 228 228 228 228 228 228 228 229 230 230 231 231 232 233 233 234
278 281 282 280 278 277 277 279 282 285 288 295 304 310 314 316 317 317 319 321 324 324 322 324 323 323 327 331 334 330 328 336 341 342 344 349 351 352 348 335 314 293 276 261 251 244 238 233 233 233 232 232 233 233 233 232 231 231 231 232 232 233 234 234 233 232 231 231 231 230 230 230 230 230 230 230 231 232 232 233 233 234 234 235 235
282 284 284 282 277 274 274 275 277 280 285 294 302 307 310 313 315 316 319 323 325 324 321 319 318 322 327 330 336 336 330 333 335 333 336 340 339 341 342 334 321 302 284 270 261 251 240 236 236 236 236 236 236 236 234 232 232 232 232 233 234 234 234 235 235 235 234 233 233 232 232 232 232 232 232 232 233 234 234 235 235 236 236 237 237
291 292 290 287 279 273 271 271 273 277 284 294 301 303 304 307 311 315 320 325 326 326 326 319 312 318 328 329 331 333 331 330 330 327 326 329 328 327 330 326 319 309 293 279 271 262 251 243 241 241 240 239 239 239 236 234 235 235 235 235 235 235 236 236 236 237 236 236 235 234 234 234 234 234 235 235 235 236 237 237 237 238 238 239 239
300 302 300 297 288 273 266 268 271 276 283 290 296 297 299 303 308 314 318 322 324 325 329 329 321 317 323 329 328 326 325 324 325 324 319 319 319 317 318 317 313 309 299 286 280 274 266 258 252 248 247 246 245 243 240 239 238 238 238 238 237 236 237 237 238 238 237 237 237 236 236 235 235 236 237 237 237 238 239 240 240 240 240 241 241
309 313 313 311 305 284 268 272 277 279 281 284 288 291 296 305 313 318 319 320 324 325 330 335 335 327 323 326 325 320 317 316 318 321 318 315 314 310 310 312 309 307 302 292 286 279 272 267 263 258 254 251 249 246 244 242 242 242 242 241 240 239 238 239 239 239 239 238 238 238 238 238 238 238 239 239 239 240 241 242 242 242 242 242 243
318 323 325 323 324 314 289 294 296 288 283 283 287 296 308 317 321 324 326 325 324 323 328 333 333 330 325 323 323 321 317 314 313 315 316 313 310 307 306 307 305 302 299 293 289 283 275 272 270 266 260 256 253 251 249 246 244 245 245 244 244 243 242 241 241 240 241 240 240 240 240 240 240 240 241 241 241 241 242 243 243 244 244 244 244
334 338 341 341 346 346 331 332 329 317 311 308 309 316 320 323 324 325 326 327 323 321 326 329 326 325 325 322 323 322 317 314 312 309 310 313 312 308 304 304 304 300 297 292 288 284 281 277 273 270 265 261 258 257 255 252 250 249 248 247 247 247 245 244 243 243 243 242 242 243 242 242 242 242 243 243 243 243 244 244 244 244 245 244 244
352 354 360 5 8 4 350 345 347 349 349 346 341 331 323 322 325 327 326 327 325 324 326 327 324 324 322 320 320 318 314 314 315 311 310 313 313 310 306 305 303 298 295 292 287 283 284 282 278 274 271 266 263 260 258 256 255 253 252 251 250 249 247 245 245 245 244 244 244 244 244 244 244 244 244 245 245 245 245 246 245 245 245 245 245
4 6 10 12 11 7 4 6 11 12 4 349 339 334 330 328 330 330 328 329 329 328 328 326 324 323 320 318 318 313 311 313 315 314 312 311 309 309 308 306 304 300 294 289 286 284 283 283 282 277 275 273 268 264 260 258 257 256 256 255 254 252 250 248 248 247 247 246 246 246 247 247 246 246 246 246 245 246 246 246 246 246 246 246 246
18 17 15 15 18 20 20 21 19 11 358 344 334 332 334 333 334 334 331 333 331 328 328 326 324 323 321 320 319 314 314 315 314 314 313 311 309 308 305 303 303 303 297 289 285 285 284 283 283 280 277 276 273 269 265 262 260 259 258 257 256 255 252 251 250 250 249 249 249 249 249 249 248 248 248 247 247 247 246 246 246 246 247 248 247
26 25 25 25 24 23 20 14 7 357 349 343 339 340 339 336 335 334 331 332 331 327 327 327 324 323 322 321 318 315 315 313 312 314 315 313 309 305 304 303 300 301 302 297 287 283 285 285 283 282 281 280 277 273 269 267 264 262 260 258 257 255 253 252 252 252 251 250 250 251 251 250 250 250 250 250 249 249 248 247 247 247 248 248 248
28 28 28 27 20 18 14 6 1 357 351 347 345 343 340 338 336 334 333 332 331 329 327 326 325 323 322 320 316 314 312 310 311 313 313 313 311 307 308 309 305 304 306 303 293 284 285 288 284 282 283 281 279 276 273 270 268 265 262 261 259 256 254 254 253 254 253 253 253 253 253 253 252 252 252 252 252 251 250 249 248 248 248 249 248
26 24 22 18 14 13 10 5 3 357 352 349 345 340 337 337 333 333 337 334 331 330 327 324 324 322 321 320 317 316 313 312 313 313 313 313 312 311 312 311 309 307 303 301 298 291 288 288 283 283 284 282 279 276 275 273 271 268 265 264 263 259 257 256 255 255 256 256 256 256 256 256 255 254 254 255 255 253 252 251 250 249 249 249 248
20 20 17 11 8 6 2 358 354 349 346 344 341 339 337 335 332 332 334 331 329 329 326 324 323 323 322 322 320 318 316 315 315 315 316 314 311 312 312 308 305 304 302 301 301 296 293 291 286 285 285 282 280 278 276 275 273 270 267 267 267 263 260 258 257 257 257 258 259 259 259 258 257 257 257 258 258 256 254 253 251 250 249 248 247
17 14 10 4 1 357 353 349 346 343 342 340 339 339 337 333 333 335 331 328 327 326 325 325 325 324 323 323 321 318 317 317 316 316 317 316 312 309 308 304 303 305 303 302 299 295 295 294 289 286 285 282 283 281 278 276 273 270 269 268 267 266 264 261 260 260 259 259 259 260 260 259 258 259 259 260 260 258 256 254 251 249 248 247 247
11 7 4 0 354 350 348 346 342 339 338 339 338 337 338 335 334 334 331 327 327 326 326 326 325 324 324 323 322 320 319 319 318 318 317 314 310 307 304 304 306 306 303 301 299 295 294 293 289 287 285 283 283 283 281 278 272 269 270 269 266 265 265 263 262 261 260 259 259 260 260 260 260 259 259 260 259 258 256 254 252 250 249 248 248
4 2 1 357 350 346 345 342 339 337 336 337 336 335 336 335 333 332 330 328 329 328 326 327 326 325 325 323 322 322 322 321 319 318 316 312 308 306 305 305 305 304 302 301 299 295 293 293 291 289 288 286 284 283 283 282 275 270 271 271 268 266 264 263 262 262 261 261 260 260 260 261 261 259 258 259 258 257 255 253 252 250 249 249 249
2 1 359 355 351 349 346 343 340 338 337 335 335 334 332 330 330 332 331 329 330 330 328 328 326 325 326 324 323 323 323 322 320 318 316 315 313 310 308 306 304 302 301 298 295 293 292 292 290 289 288 288 287 284 283 283 278 274 275 275 271 268 265 264 264 263 263 262 261 260 260 260 261 260 258 257 257 256 253 252 251 250 249 249 248
0 1 359 357 355 352 350 347 341 338 338 336 335 335 333 330 330 332 330 329 330 330 328 329 327 326 327 326 324 324 324 323 321 320 318 317 315 313 309 307 304 302 299 294 292 292 292 290 290 289 287 287 287 285 283 282 278 277 277 275 270 266 266 266 265 264 263 263 262 261 260 260 260 259 258 257 256 255 254 252 251 250 249 249 248
359 360 358 356 353 351 349 347 343 339 338 336 333 332 332 331 330 330 330 330 330 328 327 328 328 327 327 328 326 325 324 323 321 320 318 317 315 313 311 309 307 304 302 298 295 293 292 290 289 288 287 286 286 285 284 282 280 279 279 275 271 269 269 269 267 265 263 262 261 259 259 259 258 258 257 256 256 255 254 253 252 250 249 248 248
356 356 356 353 350 347 345 343 343 341 339 336 333 331 332 333 332 331 331 331 329 327 326 326 328 327 326 328 327 326 325 323 322 321 319 317 315 314 312 311 309 306 304 301 298 296 294 292 291 289 287 286 285 285 283 282 282 281 279 277 277 277 276 273 271 268 265 264 262 259 258 257 256 256 257 257 257 256 255 254 253 252 250 249 249
352 352 353 351 348 345 342 341 340 339 337 335 333 333 334 334 333 330 330 330 329 328 327 326 327 326 326 326 326 325 325 324 323 322 319 318 316 315 313 312 310 308 306 304 302 301 298 295 294 291 289 288 287 286 285 283 282 281 279 278 278 279 278 275 273 272 269 266 264 261 259 257 256 257 258 259 259 258 257 255 254 253 252 251 250
347 346 346 345 344 342 340 338 337 334 333 331 331 332 333 332 332 330 329 330 329 328 327 327 327 326 326 325 325 325 324 324 323 321 319 318 317 315 314 312 310 309 307 305 304 302 300 298 295 292 289 289 287 286 284 282 280 280 279 278 277 276 275 273 273 273 272 269 265 262 260 258 257 257 258 259 260 259 258 256 255 254 252 251 250
342 342 340 339 339 339 336 334 330 328 328 327 327 329 330 330 329 330 329 329 328 328 327 327 327 326 325 325 325 324 324 323 323 321 320 319 318 316 315 313 312 310 308 305 303 301 300 298 296 293 290 288 286 285 282 280 279 279 279 278 277 275 273 272 272 272 272 271 267 264 261 259 259 260 260 260 261 260 259 257 255 254 252 251 250
338 337 337 336 336 336 334 332 329 327 327 326 326 328 329 328 328 329 330 328 327 327 327 327 326 325 326 327 326 325 323 323 323 322 321 320 318 316 315 314 312 310 308 306 304 301 299 297 295 293 291 289 288 287 284 282 281 280 278 277 276 275 274 273 271 270 271 271 269 266 264 263 263 263 263 262 262 262 261 259 256 255 253 252 250
335 334 335 334 333 332 330 328 327 328 328 329 329 329 328 327 328 329 329 327 327 326 326 326 325 325 326 327 325 323 322 322 322 321 320 319 317 315 314 312 311 310 308 306 304 301 299 296 293 292 291 290 289 287 284 283 282 280 279 277 276 275 274 273 272 270 270 270 269 268 266 265 265 264 263 262 262 263 263 261 258 255 254 253 251
336 334 334 333 332 330 328 327 328 330 331 331 331 329 328 328 328 329 328 327 326 326 325 325 325 325 325 325 324 322 321 321 321 320 319 318 316 314 312 311 310 309 307 306 304 301 298 295 292 290 289 287 286 284 283 282 281 279 278 277 275 273 272 272 272 271 271 270 269 267 266 266 266 266 265 263 262 263 263 262 259 256 253 252 251
338 335 334 334 333 332 329 329 331 332 331 332 331 330 329 329 328 328 328 327 326 325 325 325 325 325 325 324 323 323 322 321 321 320 319 317 315 313 312 311 310 309 308 307 304 301 298 296 293 290 288 286 284 283 281 280 280 279 277 276 275 274 273 272 272 271 271 270 267 265 264 265 266 267 266 265 264 264 265 265 261 257 254 251 250
338 337 336 335 334 333 331 330 331 331 330 332 332 332 331 329 329 328 327 326 325 325 325 325 325 325 325 325 324 324 323 322 321 320 319 318 316 314 313 311 310 309 309 308 305 301 299 297 295 291 289 287 285 283 280 278 277 276 274 273 274 275 275 273 272 271 270 269 267 264 264 264 266 266 266 265 265 264 266 266 263 259 256 252 249
338 338 338 336 334 333 332 332 332 332 332 332 333 332 331 330 329 329 327 326 326 326 326 326 325 325 325 325 325 324 323 322 321 320 319 318 316 315 313 311 311 309 308 308 306 302 300 298 296 294 291 288 285 283 280 277 275 273 271 270 270 271 272 272 272 271 270 270 268 266 265 265 266 266 266 266 265 264 265 266 262 259 256 252 248
339 339 338 336 334 334 334 333 333 333 333 333 332 332 331 331 330 329 327 327 327 327 326 326 326 325 325 325 325 324 322 322 322 320 319 318 317 315 314 312 311 310 308 307 305 302 300 299 297 295 293 290 287 283 280 277 274 271 269 267 266 266 267 268 268 268 269 271 270 268 267 267 267 267 267 267 267 266 266 266 261 257 256 253 249
338 337 337 337 335 334 334 334 334 334 333 333 333 332 332 331 330 329 328 328 328 327 327 327 326 326 325 325 324 324 323 323 322 321 319 318 318 316 315 314 312 311 310 308 305 303 301 300 298 296 295 293 290 285 281 277 273 269 266 264 263 262 262 263 264 265 267 269 269 268 269 270 270 271 270 269 268 266 267 267 262 258 256 253 250
337 337 338 337 335 335 334 334 334 334 333 333 333 333 333 332 331 329 329 329 329 328 328 327 327 326 326 325 324 324 324 323 323 322 321 320 319 317 316 315 314 313 311 310 309 307 305 304 301 299 297 296 293 288 282 276 271 266 262 261 260 258 258 258 260 263 266 266 266 267 269 271 272 273 273 272 269 267 268 269 266 261 256 253 251
337 337 338 337 337 338 337 335 334 333 333 334 334 334 334 334 333 331 331 331 329 329 329 328 328 327 326 326 325 325 325 325 324 324 323 321 320 319 318 317 316 316 315 314 312 310 309 307 305 303 301 299 296 290 282 276 270 264 259 256 256 256 255 256 257 260 263 264 264 265 268 271 273 274 274 273 272 270 268 268 267 265 261 257 253
336 336 337 336 336 336 336 335 334 333 334 335 336 336 336 336 334 333 332 332 331 330 330 329 329 328 327 327 327 326 326 326 326 326 325 323 321 320 320 320 321 320 318 316 315 313 311 309 307 305 303 302 299 292 282 275 271 266 259 254 252 252 252 252 253 255 258 261 262 263 265 269 272 273 273 274 274 273 271 269 266 264 263 260 256
334 335 335 335 335 335 335 336 335 334 335 337 338 338 338 337 335 334 333 333 332 332 331 330 329 329 329 328 327 327 328 328 327 327 326 325 323 323 324 325 325 323 321 319 318 316 314 313 310 308 306 304 301 294 284 275 270 265 259 253 249 247 246 246 248 251 253 256 261 262 263 265 269 272 274 276 276 275 274 272 269 264 260 259 258
335 335 336 335 335 336 336 337 338 336 335 337 339 340 339 337 336 335 335 334 333 333 332 331 331 331 330 329 328 329 329 328 328 328 328 327 327 328 329 329 327 326 325 325 324 321 320 319 317 315 312 308 304 297 287 278 271 263 255 248 244 241 240 241 244 247 249 252 256 259 259 261 267 272 277 278 276 273 273 274 274 269 260 257 259
335 335 336 336 335 336 337 338 339 338 336 338 340 341 339 338 337 337 336 335 334 334 332 332 332 332 331 330 330 331 330 329 329 330 331 332 332 332 332 331 331 331 330 329 327 325 322 321 321 321 319 315 309 301 291 281 272 261 250 243 236 231 232 236 241 242 242 244 250 255 257 260 266 271 276 278 274 271 271 274 279 277 264 257 257